Terminal Aerodrome Forecast
Issued by NWS Columbia, SC

Home | Current Version | Previous Version | Text Only | Print | Product List | Glossary On
Versions: 1 2 3 4 5 6 7 8 9 10 11 12 13 14 15 16 17 18 19 20 21 22 23 24 25 26 27 28 29 30 31 32 33 34 35 36 37 38 39 40 41 42 43
683
FTAK31 PAJN 282334
TAFAGS
TAF
PAGS 282334Z 2900/2924 22008KT P6SM SCT035 OVC100
     FM290300 VRB05KT P6SM BKN040 OVC100
     FM290900 VRB03KT P6SM FEW008 BKN025 OVC090
     FM291500 21003KT P6SM VCSH SCT008 OVC020
      AMD LTD TO CLD VIS AND WIND=

USA.gov is the U.S. government's official web portal to all federal, state and local government web resources and services.